Location: Caltech
(34.1382°N, 118.1253°W)
Time: 15:27:30
(UTC-07:00)

FO-29 - Visible Passes

Search period start: 23 May 2017 00:00
Search period end: 02 June 2017 00:00
Orbit: 800 x 1322 km, 98.6° (Epoch: 22 May)

Date Brightness Start Highest point End Pass type
(mag) Time Alt. Az. Time Alt. Az. Time Alt. Az.
23 May 9.9 22:32:30 10° NNE 22:38:49 52° E 22:38:57 52° ESE visible
24 May 11.4 00:18:31 10° NNW 00:23:33 25° WNW 00:25:26 22° W visible
24 May 11.2 21:39:07 10° NE 21:43:22 19° E 21:43:22 19° E visible
24 May 10.0 23:22:25 10° N 23:28:50 66° WNW 23:29:51 59° WSW visible
25 May 10.0 22:27:31 10° NNE 22:33:53 49° E 22:34:16 48° ESE visible
26 May 11.3 00:13:19 10° NNW 00:18:38 27° WNW 00:20:45 23° W visible
26 May 11.2 21:34:18 10° NE 21:38:40 18° E 21:38:40 18° E visible
26 May 9.9 23:17:21 10° N 23:23:55 71° WNW 23:25:09 59° SW visible
27 May 12.2 01:07:45 10° WNW 01:08:04 10° WNW 01:08:22 10° WNW visible
27 May 10.1 22:22:31 10° NNE 22:28:58 46° E 22:29:35 45° ESE visible
28 May 11.2 00:08:08 10° NNW 00:13:44 30° WNW 00:16:04 25° W visible
28 May 11.3 21:29:31 10° NE 21:33:44 17° E 21:33:59 17° E visible
28 May 9.9 23:12:17 10° N 23:19:00 76° WNW 23:20:29 59° SW visible
29 May 12.2 01:01:10 10° NW 01:03:11 11° WNW 01:05:15 10° WNW visible
29 May 10.2 22:17:33 10° NNE 22:24:02 43° E 22:24:53 42° ESE visible
30 May 11.2 00:03:00 10° N 00:08:50 32° WNW 00:11:22 26° WSW visible
30 May 11.4 21:24:46 10° ENE 21:28:46 16° E 21:29:18 16° E visible
30 May 9.9 23:07:14 10° N 23:14:06 81° WNW 23:15:47 57° SSW visible
31 May 12.1 00:55:29 10° NW 00:58:19 13° WNW 01:01:14 10° W visible
31 May 10.4 22:12:36 10° NNE 22:19:07 41° E 22:20:12 39° ESE visible
31 May 11.1 23:57:52 10° N 00:03:57 35° WNW 00:06:41 27° WSW visible
01 Jun 11.4 21:20:05 10° ENE 21:23:50 15° E 21:24:36 14° E visible
01 Jun 9.9 23:02:13 10° NNE 23:09:13 86° WNW 23:11:05 56° SSW visible
